Theta_e
351 347 346 347 346 347 346 346 345 343 340 338 337 336 336 338 340 340 341 341 341 340 340 340 340 342 342 343 343 344 344 344 344 343 343 340 337 335 334 334 334 334 334 335 335 334 332 331 331 330 330 330 329 329 329 329 329 328 328 327 326 324 325 331 333 332 331 332 334 335 336 338 338 340 343 343 341 340 339 339 340 342 343 341 342
351 347 347 347 346 346 345 345 345 344 340 339 339 338 339 340 341 341 341 342 343 342 341 342 343 343 343 344 344 344 345 344 343 340 338 336 334 333 333 335 338 338 338 339 338 338 338 338 337 336 335 333 332 331 331 331 332 331 329 328 327 326 325 331 334 333 333 334 336 337 338 339 339 340 341 342 341 340 339 339 340 343 343 340 341
349 347 347 347 346 345 344 343 345 344 340 341 342 342 342 341 341 340 342 343 344 344 344 343 343 344 343 344 344 345 345 343 340 337 335 334 335 335 337 338 340 340 340 340 340 341 342 342 342 341 340 339 338 337 336 335 337 336 334 332 328 328 329 333 335 336 337 336 337 337 339 341 342 341 340 340 340 339 339 339 340 342 343 340 341
348 347 347 347 346 346 345 343 343 342 342 343 344 343 343 342 342 340 341 343 344 344 343 343 344 344 344 344 344 344 343 340 337 335 335 336 337 338 339 340 341 341 342 342 343 343 344 344 344 344 344 344 343 342 342 340 341 340 340 339 335 333 335 338 338 340 340 339 339 339 342 346 346 344 340 339 337 336 338 339 339 341 342 340 341
347 346 347 346 346 346 346 344 341 341 341 343 344 343 342 341 341 340 341 343 343 343 342 343 343 344 343 344 344 342 340 336 334 333 336 338 338 338 340 342 343 344 345 345 345 344 344 345 344 344 344 345 345 345 345 343 342 341 341 343 342 340 340 343 343 342 342 340 342 342 344 347 345 344 341 339 336 335 336 338 338 340 341 341 341
346 346 346 346 346 346 346 345 343 343 341 340 341 341 340 339 340 341 342 342 342 342 342 342 342 343 343 343 343 340 337 335 335 336 337 337 338 340 343 345 345 346 346 346 345 344 344 343 344 344 344 344 344 344 345 345 344 342 341 342 343 343 343 345 344 344 344 342 342 343 343 345 345 343 342 340 337 335 336 337 337 339 340 340 340
343 344 344 345 345 346 345 345 345 345 345 342 340 340 340 340 342 343 342 342 343 342 343 343 342 343 343 343 342 339 338 339 339 339 338 338 340 343 346 345 346 345 344 344 344 344 343 343 343 343 344 344 344 344 344 344 344 344 343 341 343 343 343 343 344 345 344 342 341 342 342 344 346 344 343 341 338 335 337 339 338 339 340 339 340
347 346 343 343 343 345 346 345 346 346 346 346 344 343 343 344 345 345 344 345 344 343 343 343 343 343 342 340 340 341 342 342 341 340 338 340 343 345 346 345 345 345 343 344 345 345 344 343 344 344 345 345 344 345 344 344 344 344 344 342 342 343 343 343 343 343 342 342 342 341 341 343 345 344 341 341 339 336 338 340 340 340 340 339 340
354 352 344 341 342 343 345 346 347 346 346 347 346 346 345 346 346 347 346 345 344 344 344 343 342 342 340 339 340 342 342 341 340 339 340 343 345 345 345 345 345 345 344 344 345 345 345 343 344 344 345 345 344 345 344 345 344 344 345 344 343 342 342 343 342 342 342 342 342 342 342 342 345 344 340 340 340 338 339 340 341 340 339 339 339
356 355 345 341 342 342 344 345 346 346 346 346 347 346 345 345 346 347 346 344 342 342 343 343 342 342 341 340 340 340 339 339 339 341 343 345 345 345 344 345 345 345 344 344 345 346 345 343 343 344 345 344 344 345 345 345 345 345 345 345 344 343 343 343 342 342 341 341 342 343 342 343 344 345 343 339 338 339 339 340 342 341 340 340 339
357 354 343 341 343 342 343 344 345 345 345 345 345 345 344 344 345 346 345 343 341 341 342 343 343 342 341 339 339 339 338 339 342 345 346 346 345 346 345 345 346 345 344 345 345 345 345 344 344 344 344 344 344 344 345 345 345 346 345 345 345 345 344 344 343 342 342 341 342 343 343 342 343 344 344 339 338 341 339 340 342 342 341 339 339
357 353 342 341 342 342 343 343 343 344 344 344 343 343 343 344 344 344 343 343 342 342 342 341 341 341 340 339 339 339 339 342 345 346 347 347 346 345 344 344 345 344 344 345 345 345 345 345 345 345 345 344 345 345 346 347 346 347 346 346 345 345 345 345 344 343 342 342 342 342 342 343 343 343 343 340 338 340 340 339 341 342 341 338 339
357 352 342 341 341 342 343 343 343 343 343 343 343 343 342 342 343 343 342 342 342 342 341 340 340 339 340 340 340 341 343 345 346 346 346 346 345 344 342 343 344 344 344 345 344 345 346 346 346 345 345 345 345 346 346 347 347 348 347 347 347 346 346 346 346 345 344 343 342 342 341 342 342 341 342 342 339 340 340 339 340 341 340 338 339
356 349 343 341 342 342 342 342 343 342 343 343 343 342 342 342 342 341 341 340 341 340 340 340 340 340 341 342 342 344 345 347 346 346 346 344 342 342 341 342 343 344 344 345 345 345 345 346 346 345 346 345 345 346 345 346 346 347 347 347 347 347 347 347 347 346 346 344 343 343 341 341 342 340 341 343 339 339 340 339 339 340 340 338 337
354 348 344 344 343 343 342 341 341 342 343 342 341 341 340 341 340 340 340 340 340 340 340 341 342 342 344 344 345 345 345 345 346 345 344 342 340 340 340 341 343 343 344 345 345 346 346 346 346 345 345 345 344 344 344 345 345 345 347 347 347 347 347 348 347 347 347 345 344 344 342 342 343 341 341 343 341 339 339 340 339 340 341 339 336
354 349 344 344 343 343 342 341 339 341 343 342 341 340 340 340 340 342 342 342 341 342 343 343 344 345 345 345 344 345 344 344 344 344 342 339 338 339 340 341 342 343 344 345 345 346 346 346 345 345 345 345 345 345 345 345 345 346 346 347 347 347 347 347 347 347 347 347 345 344 344 342 342 343 344 343 340 338 338 340 340 340 341 340 337
355 351 345 343 343 341 342 341 340 342 343 344 343 342 343 344 344 344 344 344 343 343 344 344 345 345 344 344 344 343 343 343 342 340 337 336 337 338 339 340 342 343 344 345 345 345 345 345 345 346 346 346 346 346 346 346 346 347 347 347 347 347 347 347 347 346 347 347 346 345 344 343 342 342 344 341 339 339 338 339 339 341 341 340 339
354 355 350 345 343 343 342 340 339 341 342 342 344 344 344 344 344 344 344 343 342 342 343 344 344 344 344 343 343 344 343 341 338 336 335 336 337 338 340 341 343 344 344 344 343 344 345 345 346 347 347 347 346 346 346 347 347 348 348 348 348 347 347 347 348 347 346 347 347 346 345 344 343 343 345 341 338 339 337 339 339 340 342 340 338
353 356 355 351 350 347 344 342 341 343 344 343 342 342 343 344 343 343 342 341 340 341 343 343 343 344 344 342 343 343 342 338 335 335 336 337 339 341 343 344 344 343 342 341 342 343 345 345 346 346 346 346 346 346 346 348 349 349 349 348 348 348 348 348 348 347 347 347 347 347 346 345 343 343 345 341 337 338 337 338 339 341 342 340 338
352 354 356 355 356 352 348 345 345 349 349 347 346 343 343 344 345 345 343 342 341 342 343 343 344 345 343 343 342 338 339 341 340 339 338 340 342 344 345 345 343 342 341 342 342 344 345 344 345 345 345 346 347 347 348 349 350 350 349 348 348 348 348 348 348 347 347 348 347 347 347 345 344 344 345 341 337 337 338 338 340 342 342 341 339
351 354 356 354 355 354 351 347 347 351 352 351 350 348 346 345 346 346 344 342 341 341 342 342 344 344 345 343 341 339 341 344 344 342 340 342 344 345 345 344 342 341 342 343 343 344 344 345 345 345 346 346 348 348 348 349 350 349 348 348 348 348 348 348 348 347 347 347 347 347 347 346 346 345 343 342 338 334 337 340 341 343 343 340 339
351 353 354 354 354 354 354 351 351 352 352 352 349 349 349 346 347 347 345 344 342 340 338 341 345 347 348 345 343 343 344 344 344 344 345 345 345 345 344 344 344 344 346 346 347 346 344 347 348 347 346 346 347 347 348 348 349 349 348 348 349 348 347 348 348 347 347 347 347 348 348 347 347 346 343 342 341 334 336 342 342 343 344 340 339
351 352 352 353 354 354 354 353 353 352 353 353 352 351 349 348 349 350 348 348 346 341 339 343 347 349 349 347 345 346 345 344 344 346 346 345 344 345 345 346 347 347 349 349 349 349 346 347 350 349 348 347 345 347 348 348 348 349 348 349 350 348 347 348 348 347 347 348 348 348 349 347 347 346 343 342 341 336 335 342 343 343 343 340 339
350 351 352 351 351 353 352 350 352 353 354 353 352 352 349 348 350 351 351 351 349 344 343 347 348 348 348 347 347 347 348 346 345 348 345 344 346 347 349 350 350 349 349 348 349 350 348 348 350 348 348 347 346 346 347 347 347 348 348 348 348 348 347 347 348 348 347 347 348 348 349 348 347 347 344 341 342 338 336 341 344 343 343 340 339
349 350 350 350 350 351 350 350 351 353 355 354 353 353 349 348 350 352 353 353 351 349 348 348 349 348 347 348 347 349 349 350 351 352 350 349 350 351 352 351 350 350 349 349 349 350 350 349 349 348 346 346 346 346 347 347 347 347 347 347 348 349 348 347 348 347 347 348 348 348 348 348 348 346 344 341 342 339 336 340 344 344 342 341 339
347 348 348 350 349 348 349 349 350 352 354 355 354 354 352 352 353 353 353 354 354 353 353 352 351 350 349 348 349 350 350 351 352 353 354 353 352 351 351 351 351 350 350 352 350 349 351 350 350 349 347 346 347 347 348 348 346 347 348 348 348 348 348 347 347 346 347 347 348 348 348 348 348 347 345 342 341 340 338 340 343 343 342 342 340
346 347 346 349 347 346 347 348 349 351 353 354 355 354 351 351 353 354 354 354 354 354 356 354 354 353 351 349 349 351 351 351 351 352 354 353 351 350 350 350 350 350 350 352 350 349 351 351 350 349 346 345 346 347 348 347 347 348 348 347 347 347 348 349 348 347 347 347 348 349 348 347 347 347 345 343 342 340 339 340 343 344 343 342 340
344 345 345 347 346 345 346 348 348 350 352 354 353 354 352 350 351 353 353 353 355 355 355 355 354 354 352 349 351 352 351 352 351 351 353 352 350 350 350 350 349 349 350 350 350 350 350 349 349 347 346 346 346 346 347 347 346 347 346 346 345 346 347 348 348 348 348 348 348 348 347 347 347 346 345 343 342 341 341 340 341 344 344 342 341
342 344 346 345 344 345 345 347 348 349 352 353 352 352 352 352 352 353 352 351 351 352 355 354 353 353 353 351 350 351 350 351 351 351 352 350 350 349 349 350 350 350 350 350 350 351 349 348 348 347 347 346 346 346 347 348 347 348 347 347 346 345 346 347 347 348 347 347 347 346 346 347 347 346 346 344 342 341 341 341 341 343 343 343 342
341 342 343 344 342 344 344 345 348 349 350 351 351 352 352 352 352 352 354 352 347 345 350 353 352 352 352 352 351 349 348 351 351 351 351 350 349 350 350 351 351 349 349 350 350 350 349 347 349 349 347 347 347 346 347 349 349 350 350 349 347 345 347 348 347 348 348 347 347 345 345 347 347 346 346 345 343 342 341 341 343 342 342 343 343
340 341 341 342 342 343 344 344 347 348 349 350 350 352 353 352 353 353 353 354 349 340 342 350 352 352 351 351 352 349 347 349 350 350 350 349 348 349 349 350 350 349 350 351 351 351 350 350 350 348 347 347 348 346 347 350 349 349 349 349 348 347 348 347 347 348 348 348 348 346 346 347 347 347 347 345 345 344 342 341 342 342 341 342 343
339 343 340 340 343 342 344 344 346 347 347 350 351 352 353 352 353 354 353 354 351 344 345 350 351 350 351 352 354 352 348 349 350 349 348 348 348 349 349 349 349 350 350 350 350 350 350 351 350 348 345 346 348 348 348 350 349 348 350 349 349 350 349 346 347 349 348 348 348 348 347 348 348 348 346 345 345 345 344 342 341 341 341 342 342
341 346 342 340 342 341 345 345 345 348 346 348 351 352 353 353 352 353 353 354 354 351 352 353 351 350 350 352 354 352 348 348 349 348 348 348 350 350 348 347 348 350 351 348 347 347 346 349 349 348 345 344 348 348 349 350 348 348 348 347 348 349 347 346 346 348 348 349 349 348 347 347 348 348 347 346 346 346 345 343 341 340 340 341 342
344 348 345 343 344 343 346 345 344 349 347 347 351 352 353 354 354 353 352 353 354 354 352 351 350 350 349 351 353 351 346 344 347 349 349 350 351 349 346 346 346 349 349 346 345 346 345 345 347 347 344 344 345 345 347 348 347 346 346 345 347 347 347 346 345 346 348 349 348 348 348 348 348 347 347 346 346 345 344 344 342 341 340 341 342
348 348 346 348 348 346 346 345 343 349 351 348 351 353 354 354 354 354 353 353 354 353 352 350 349 349 349 350 351 351 349 346 347 347 346 349 351 348 346 345 345 347 348 346 343 343 344 345 343 343 344 344 341 340 346 347 346 345 345 345 345 346 347 345 345 346 347 348 348 348 348 348 348 347 346 346 346 345 344 344 342 341 341 341 342
351 349 348 350 351 349 349 347 344 348 352 350 351 352 354 355 354 354 353 354 353 353 352 350 349 349 349 350 350 351 352 351 349 346 343 345 349 349 347 346 345 346 347 346 342 339 342 343 340 340 344 344 340 341 346 346 345 344 344 346 345 344 346 344 344 346 346 347 349 348 348 347 348 346 346 346 346 346 346 345 343 342 342 341 342
353 352 351 352 353 352 351 351 350 351 352 352 351 350 349 352 353 354 354 354 354 353 351 350 350 350 350 350 350 351 353 353 353 349 345 344 348 350 349 347 347 347 347 347 342 338 340 341 339 340 342 344 341 342 346 345 342 344 345 347 345 344 344 344 343 344 345 348 348 348 348 348 347 347 346 346 346 346 346 345 344 342 342 342 341
354 354 354 354 353 354 354 354 355 355 354 354 354 353 348 346 347 349 352 353 353 353 352 352 352 351 350 348 348 350 352 353 352 349 345 344 346 348 348 347 346 346 348 348 343 339 340 340 340 341 343 343 341 341 346 344 340 344 345 345 346 344 344 344 344 344 345 347 348 348 349 348 347 346 346 346 346 346 346 345 343 343 343 342 341
355 355 355 355 355 356 356 356 358 358 357 355 354 355 354 351 348 349 350 352 353 353 353 351 349 347 348 348 348 349 350 350 349 346 345 345 345 347 347 346 344 345 347 346 343 341 341 340 340 342 344 342 342 342 344 343 341 343 344 343 344 344 343 343 345 345 345 345 347 348 347 348 347 347 346 346 345 346 347 345 344 342 343 342 341
356 356 356 356 356 355 356 358 359 358 358 356 353 355 357 357 355 353 350 351 352 352 352 349 345 345 347 349 349 349 348 348 347 345 345 345 346 348 347 345 344 343 345 345 343 342 341 340 341 344 345 342 342 341 343 344 341 341 342 342 343 344 343 343 345 345 345 345 346 347 347 347 347 347 346 345 345 346 346 346 345 343 342 341 340
357 357 357 357 357 355 355 355 353 351 353 356 355 353 353 354 355 354 352 352 352 352 353 352 350 348 346 346 348 350 350 351 351 348 346 346 347 348 346 346 344 344 345 344 343 343 341 342 344 346 344 341 341 341 343 343 339 340 341 340 342 345 344 344 345 345 345 345 345 346 347 347 347 347 346 346 346 346 346 347 346 344 342 342 341
358 358 357 358 357 353 351 349 348 348 348 351 352 351 350 352 352 353 353 354 356 356 355 354 353 350 346 346 349 351 353 354 354 352 348 348 348 347 345 346 345 345 345 344 344 344 342 343 345 346 343 341 342 343 343 341 339 342 342 339 341 345 346 346 346 346 346 345 345 346 345 346 347 347 346 346 347 346 346 346 346 345 344 343 343
358 358 357 357 355 351 349 349 349 349 347 348 350 349 351 353 353 353 353 353 354 353 352 351 351 350 348 350 352 354 356 356 356 354 350 348 349 348 346 346 346 346 346 345 345 343 343 345 345 344 342 342 344 343 342 342 342 343 343 342 340 342 346 346 345 346 345 343 345 346 344 343 345 346 347 347 346 347 346 345 345 345 345 344 343
358 358 356 354 352 352 351 350 350 349 349 350 351 351 351 352 353 353 353 352 351 348 349 350 351 351 351 352 353 354 357 356 355 353 351 350 350 349 348 348 347 347 346 345 344 343 343 346 345 343 342 344 344 342 341 343 344 344 344 343 341 342 344 343 343 345 344 342 343 345 343 341 342 344 346 347 347 347 348 347 346 345 346 345 344
358 356 354 352 351 353 352 350 350 350 350 351 351 352 352 351 352 352 351 351 350 351 353 353 352 353 352 353 354 354 354 353 352 352 352 352 351 349 349 348 347 347 346 344 343 343 344 345 344 343 343 344 343 341 341 342 342 343 343 342 342 343 343 342 343 344 343 343 342 342 342 340 340 342 344 346 346 347 348 347 347 346 346 346 345
358 355 354 353 353 352 352 351 351 351 351 351 352 352 353 354 353 351 350 351 353 355 355 354 353 352 352 353 353 353 353 352 352 351 351 351 350 349 348 348 347 346 345 343 343 343 343 344 343 342 343 343 342 341 342 343 342 342 342 342 342 343 342 342 343 343 343 343 342 342 343 342 342 342 343 345 344 344 346 347 347 347 347 347 347
357 354 354 355 353 352 352 352 351 352 352 352 354 355 355 356 354 352 353 353 354 354 352 352 352 351 351 351 351 351 351 351 350 350 351 351 350 348 348 348 347 346 344 344 344 344 345 344 342 341 341 342 343 342 343 343 342 342 342 342 343 342 341 341 342 342 342 342 341 345 345 343 343 343 343 344 343 342 344 345 346 347 347 347 347
353 350 354 354 353 352 351 352 352 352 354 354 355 355 355 356 354 353 354 353 353 352 351 352 351 351 351 351 351 350 350 350 350 350 350 350 349 348 348 348 347 346 344 344 345 345 345 344 342 341 342 342 343 343 342 342 343 343 342 342 343 342 340 340 340 340 340 340 340 344 345 341 340 341 341 341 342 342 342 342 343 344 346 347 346
351 349 357 355 352 352 350 352 353 353 354 354 356 356 355 355 354 355 354 353 353 353 352 352 351 351 350 349 350 349 349 350 351 350 349 348 348 348 347 347 346 345 345 344 343 344 344 343 343 342 343 343 343 343 343 343 343 343 343 343 342 341 339 339 338 337 337 338 338 340 342 340 339 340 339 339 340 341 340 340 341 342 343 344 345
354 354 359 356 353 351 351 352 353 353 354 355 355 356 354 353 353 354 354 354 353 352 352 351 351 350 349 349 348 349 348 349 350 350 349 348 348 347 347 346 343 343 344 343 342 342 343 343 343 343 343 344 344 343 343 342 342 341 342 342 341 340 339 337 336 336 336 337 338 339 339 339 339 339 339 338 338 339 339 339 340 341 342 342 343
358 356 356 355 354 353 351 352 354 354 354 354 353 353 352 352 352 353 353 353 352 351 350 350 350 349 348 348 348 348 348 349 350 349 347 347 346 346 345 343 342 343 343 343 343 342 342 343 343 344 345 344 343 341 340 339 338 337 338 337 337 337 337 335 335 336 335 336 337 338 338 338 338 338 338 337 337 338 340 339 340 341 342 343 342
Wind_Speed
16 17 18 18 17 16 16 17 17 17 17 18 18 18 18 17 16 16 16 15 14 14 13 13 12 12 10 10 9 9 9 8 8 8 8 8 7 7 7 6 5 6 5 5 5 6 6 6 6 6 6 6 7 7 7 7 7 7 6 6 4 3 2 1 1 1 1 1 1 0 1 1 1 1 1 1 0 1 1 1 2 3 2 4 5
18 18 19 18 17 16 16 16 17 17 16 17 18 17 16 16 15 15 14 14 13 12 11 11 10 10 9 9 8 8 8 7 7 7 7 7 7 6 6 5 5 5 5 5 6 6 7 7 7 7 7 7 7 7 7 7 7 7 7 6 4 3 2 1 1 1 1 1 1 1 2 2 2 3 3 3 2 1 1 0 1 2 2 4 5
21 19 18 18 17 16 15 15 16 17 17 17 17 16 15 14 14 14 13 12 12 11 10 9 9 9 8 8 7 6 7 6 6 6 7 6 6 6 6 6 6 6 6 7 7 7 7 7 8 8 8 8 8 8 7 7 6 6 6 6 5 3 2 2 1 2 2 1 1 1 1 2 3 4 4 4 3 2 0 0 0 2 1 3 4
20 20 19 18 17 16 15 14 15 17 17 16 16 15 15 14 13 13 11 11 11 10 10 9 8 8 7 7 6 5 5 5 5 6 6 6 6 6 7 7 7 7 7 8 8 7 7 7 7 8 9 9 8 8 8 7 7 6 6 5 5 4 2 2 1 1 2 1 1 1 1 1 3 4 5 5 4 3 1 1 0 0 1 3 4
19 20 18 17 17 16 16 15 14 15 16 16 15 14 13 13 13 12 10 10 9 9 9 8 8 7 7 6 5 4 3 4 5 6 6 6 7 8 8 7 7 7 8 8 8 8 8 8 8 9 9 9 9 8 8 8 8 8 7 5 4 4 3 3 2 2 2 2 2 2 3 3 2 3 4 5 5 3 2 1 1 2 2 4 5
19 19 18 16 16 17 16 15 14 14 14 14 14 13 12 11 11 10 10 9 9 8 8 8 7 7 6 5 4 4 4 5 6 6 6 7 7 7 7 7 7 8 8 8 8 8 8 8 8 9 9 9 9 9 9 8 9 9 9 7 5 4 4 4 4 4 3 4 4 4 4 4 4 4 4 4 5 3 2 1 1 2 3 4 5
19 19 18 16 16 16 16 14 14 13 13 13 13 13 11 11 10 9 9 8 8 8 8 8 7 6 5 4 4 4 5 5 5 6 6 7 6 6 6 7 7 7 7 8 8 7 7 8 7 8 9 9 10 10 10 9 9 10 10 10 7 6 6 6 6 6 5 5 6 6 6 6 5 5 4 4 5 3 3 2 2 3 3 4 5
19 19 18 17 15 15 15 14 13 13 12 12 12 12 11 10 10 10 9 8 8 8 8 7 7 6 4 3 4 4 4 4 5 5 6 6 5 6 6 6 6 6 7 7 7 7 7 7 7 8 9 9 10 10 10 10 9 10 11 11 9 8 7 7 7 8 7 7 7 8 7 7 7 6 5 4 4 3 3 2 3 2 3 5 5
20 19 17 16 15 15 14 14 13 13 12 11 12 12 11 10 10 10 10 9 8 8 7 6 6 5 3 2 3 2 3 4 5 5 5 5 5 6 6 6 5 6 7 7 7 7 7 7 7 8 9 9 9 10 10 10 9 9 10 11 11 10 9 9 9 9 9 9 8 8 8 8 7 7 7 5 4 3 4 4 3 2 3 5 6
20 18 17 16 16 15 14 14 13 13 12 12 12 12 11 10 9 10 10 9 8 7 6 5 5 4 2 1 1 2 3 4 4 4 4 5 5 5 5 5 5 6 7 7 7 7 7 8 8 8 9 10 10 10 10 10 9 9 10 10 11 12 11 11 10 10 11 10 10 9 9 9 8 7 8 6 4 4 5 5 3 3 4 5 6
20 17 16 17 16 15 14 14 14 14 13 13 12 12 11 9 9 9 9 8 7 6 6 5 4 3 2 0 2 3 3 3 3 4 4 5 5 5 5 5 6 7 7 7 7 7 7 9 9 10 10 11 11 11 11 10 10 9 9 10 11 11 12 12 12 12 12 12 11 10 10 10 9 8 8 6 6 5 6 6 4 5 5 5 5
18 16 16 17 16 15 14 14 14 14 14 13 13 12 11 10 9 9 8 7 6 6 5 4 4 3 2 2 3 3 3 2 3 4 4 5 5 5 5 5 5 6 6 6 7 7 8 9 10 11 11 12 12 12 12 11 11 10 10 10 10 10 11 12 13 14 14 13 12 12 11 11 11 9 7 7 6 6 7 7 5 5 6 6 5
18 16 16 16 17 15 14 14 13 13 14 14 13 12 11 10 9 8 7 6 6 5 4 4 4 3 3 3 3 2 2 3 3 4 4 5 5 5 5 5 5 6 6 6 7 8 9 10 11 12 12 12 12 13 13 12 12 12 11 11 11 10 10 12 13 14 15 14 13 13 13 13 12 10 9 8 6 7 8 8 7 6 5 6 6
17 15 17 16 16 15 14 13 12 13 13 12 12 12 11 10 8 7 6 6 5 5 5 4 4 3 3 3 3 2 3 3 4 4 4 5 5 6 5 5 6 6 6 6 7 8 9 10 12 13 13 13 13 13 13 13 13 13 12 11 11 10 10 11 12 14 14 15 14 14 14 14 13 11 11 9 7 8 10 8 8 7 5 5 6
15 15 16 15 15 15 13 13 12 12 12 11 11 10 9 9 8 7 7 6 6 5 4 3 3 3 3 3 3 3 3 3 3 4 5 5 6 5 5 5 6 6 6 6 7 9 10 11 12 13 14 14 14 14 14 14 14 13 12 12 11 10 10 11 12 13 13 14 15 16 15 14 14 13 12 11 9 10 11 9 9 8 6 5 5
15 15 15 15 14 13 12 11 11 11 11 10 10 9 8 8 8 7 6 5 5 4 3 2 3 3 3 3 3 3 3 3 4 4 5 5 5 4 4 5 5 5 6 7 8 10 11 12 12 13 15 15 15 16 15 15 14 14 13 12 11 10 10 11 11 12 12 13 14 16 17 16 15 14 14 14 12 11 11 11 10 10 8 6 5
16 15 14 14 13 13 11 11 10 10 10 9 9 9 8 7 6 6 5 4 4 4 3 3 4 4 4 3 2 2 3 3 4 4 4 4 3 3 4 4 5 6 7 8 9 10 11 12 13 14 15 16 16 16 16 16 15 14 13 12 11 11 10 11 11 11 12 13 13 15 18 17 16 16 15 15 13 11 12 11 11 11 10 8 7
15 15 15 13 13 12 11 11 9 9 9 8 8 7 7 6 6 5 4 4 4 4 4 3 3 3 3 2 2 2 3 3 3 3 3 2 2 3 3 4 5 6 7 8 9 11 12 12 13 14 16 17 17 18 17 16 15 14 13 12 11 11 10 10 10 10 11 12 12 15 17 17 17 17 16 15 14 13 13 12 13 13 11 10 9
15 16 15 13 12 11 10 10 9 9 8 7 7 6 5 5 5 5 4 4 4 4 4 3 3 2 2 1 2 2 2 1 2 2 2 2 2 2 3 4 5 6 7 8 9 10 11 12 13 14 15 17 18 18 17 15 14 14 13 12 11 11 11 10 9 10 10 11 12 14 15 17 18 18 17 16 15 15 14 13 13 13 13 12 11
14 15 15 13 12 11 10 9 9 9 8 7 7 6 6 4 4 4 4 4 4 4 4 3 2 2 1 1 1 1 1 0 1 1 1 2 2 2 2 3 5 6 7 8 9 10 11 13 13 14 16 18 19 18 17 16 14 13 13 12 11 10 11 10 9 9 10 11 12 13 14 17 19 20 19 17 16 16 15 15 14 14 14 13 12
13 13 14 12 11 10 9 8 10 10 7 7 7 6 6 5 4 4 4 4 4 4 3 3 3 2 1 1 1 1 1 1 2 1 1 1 1 2 3 4 6 7 8 9 10 11 12 14 14 15 17 18 20 20 19 17 15 14 14 13 10 9 10 9 9 9 10 11 11 12 13 16 18 20 21 18 17 17 16 16 15 14 14 13 13
12 12 12 12 11 10 9 8 10 9 7 7 6 6 6 5 5 5 4 4 4 3 3 3 3 2 2 2 2 2 1 2 2 2 2 1 1 1 3 6 7 7 8 10 11 12 14 14 13 15 16 18 21 21 20 18 15 14 13 12 10 10 9 9 9 8 9 10 10 11 12 15 18 20 21 19 17 18 18 18 16 15 14 14 14
12 12 12 13 12 11 10 9 11 10 7 7 5 5 5 4 5 5 4 3 4 4 3 3 3 3 3 3 3 2 3 3 1 2 3 3 3 3 4 6 8 9 9 12 13 13 14 13 13 15 17 20 21 20 19 17 15 13 11 11 11 11 9 8 8 8 9 9 9 10 11 14 18 21 22 20 19 19 19 19 18 16 15 15 15
12 12 12 13 12 12 11 10 12 11 8 6 5 4 4 4 5 4 4 4 4 4 4 4 4 4 4 4 3 2 2 3 2 2 4 5 5 6 6 7 8 9 11 12 12 13 14 12 13 16 19 21 21 19 17 16 14 13 11 9 10 10 9 7 7 7 8 8 8 9 10 12 15 20 22 22 20 20 21 20 19 17 16 16 16
12 12 12 13 12 12 11 12 11 11 10 8 5 3 4 3 3 4 3 4 4 4 5 5 6 5 5 4 3 2 2 3 4 5 6 6 6 7 7 8 8 7 10 11 11 13 13 13 14 16 19 21 21 18 16 15 13 12 11 9 9 9 8 7 7 8 8 9 9 8 10 11 14 18 22 23 22 22 22 21 20 18 17 17 17
12 11 11 12 12 12 12 12 11 10 11 10 8 7 6 5 4 4 4 4 4 5 6 5 6 6 5 5 3 3 3 2 5 9 8 7 7 6 6 8 8 7 9 10 10 12 12 14 15 16 20 22 21 17 16 14 12 12 12 11 10 8 7 7 8 8 8 9 9 8 10 12 14 18 22 24 24 23 23 21 20 19 18 18 18
12 11 10 11 11 11 12 12 11 11 10 10 11 10 7 8 8 7 6 6 5 5 6 6 6 7 6 6 4 3 4 5 7 10 7 6 7 6 6 9 11 8 7 9 11 12 13 13 13 15 19 21 20 17 15 13 10 11 13 11 10 9 8 8 8 8 9 10 11 9 10 11 14 18 22 25 25 25 25 23 21 20 19 18 18
10 10 10 11 11 12 12 11 11 11 10 10 10 9 7 8 9 9 10 9 8 7 8 8 7 8 9 7 5 5 7 8 8 7 6 5 6 4 6 7 10 10 9 11 11 11 13 13 12 15 18 20 19 15 12 11 10 11 12 11 10 10 9 8 8 8 9 11 13 12 10 11 14 18 22 26 27 26 25 24 23 21 19 19 19
10 10 11 11 11 12 13 12 12 11 10 10 8 8 8 8 8 9 9 10 12 11 8 8 8 9 10 9 8 9 8 8 8 6 5 5 5 4 5 5 6 8 8 10 9 10 14 13 13 16 18 19 16 12 9 10 11 10 10 11 12 11 8 8 7 7 8 10 12 12 11 12 14 17 22 26 28 28 26 25 24 23 21 20 20
10 11 11 11 11 12 13 12 12 11 10 10 9 8 8 8 9 9 8 10 12 11 11 9 9 9 9 11 11 9 8 8 8 6 5 5 5 5 5 5 5 6 7 8 9 11 14 14 15 17 18 18 13 9 9 10 11 11 11 10 12 12 9 9 9 8 9 9 10 11 12 13 14 16 21 25 28 28 27 26 25 24 23 21 20
11 11 11 11 11 13 13 12 12 11 10 9 9 9 9 9 9 9 9 10 11 10 12 11 10 10 9 12 14 12 9 8 7 7 6 5 6 6 6 7 7 7 6 7 10 12 15 15 15 17 18 17 13 10 12 12 12 13 12 10 12 12 10 12 12 10 11 9 9 10 12 14 15 16 18 22 25 27 28 27 25 24 23 22 21
11 9 11 12 10 12 13 13 12 11 10 9 10 9 9 10 8 9 9 10 11 9 10 9 9 9 8 11 15 15 10 7 7 7 7 7 6 6 7 7 7 7 8 9 11 11 13 14 14 17 19 18 13 11 11 12 12 13 13 13 13 12 10 13 13 12 13 11 11 12 13 15 15 14 16 19 22 25 27 26 25 24 23 23 22
10 6 10 11 9 10 11 13 11 11 10 9 9 9 9 9 8 8 8 9 10 8 8 8 8 8 9 11 14 14 10 9 8 6 8 8 7 7 7 8 8 9 11 12 11 9 13 14 13 16 18 16 12 10 10 10 12 13 14 15 12 11 12 13 14 14 14 13 13 13 13 15 15 14 15 17 21 23 24 25 25 24 24 24 23
9 6 10 9 8 10 11 12 11 9 11 10 9 9 8 8 7 7 7 7 8 9 8 8 8 9 10 12 14 15 13 10 8 7 10 9 6 7 7 9 11 12 13 14 13 13 14 14 14 16 17 14 9 9 8 8 11 12 14 15 12 11 12 13 16 16 14 13 13 13 15 15 15 14 14 16 19 21 24 25 25 25 24 25 24
8 10 11 6 7 11 12 12 13 10 9 10 10 9 8 8 7 7 8 8 8 9 9 8 9 10 10 13 16 16 15 12 10 11 13 9 6 7 9 11 13 14 15 14 15 16 16 14 16 18 17 13 9 8 7 7 10 12 12 13 15 13 11 13 16 16 14 12 12 12 14 16 16 14 14 16 18 21 24 26 26 25 25 25 25
9 10 11 7 7 9 10 9 12 12 9 9 10 10 9 8 7 7 7 8 8 8 9 9 9 10 10 12 14 15 15 14 13 13 13 10 7 8 12 14 14 15 15 13 15 17 17 16 18 19 18 13 9 7 6 7 10 12 12 11 14 13 10 13 15 16 15 11 11 9 10 15 16 13 13 15 17 19 21 24 26 25 25 26 26
10 10 10 9 8 8 8 7 8 9 8 8 8 9 9 9 9 9 8 8 9 9 8 8 9 10 10 11 14 14 14 14 13 13 13 12 10 11 14 14 14 15 15 14 15 16 17 17 18 19 17 13 9 6 6 7 10 12 12 10 14 14 10 12 15 16 15 11 9 7 7 12 15 14 13 14 15 16 18 20 23 24 25 25 26
11 11 10 9 9 8 7 8 7 7 8 8 8 8 7 7 9 10 10 10 10 9 9 10 11 12 10 12 14 13 14 15 15 15 15 15 14 14 15 14 14 15 15 15 16 17 17 18 19 18 15 11 9 7 7 10 11 10 11 10 14 15 12 12 15 15 15 12 9 6 3 7 12 13 13 14 14 15 16 20 22 23 24 24 25
12 11 10 10 9 9 8 8 8 7 7 7 8 7 6 7 7 8 9 9 10 10 11 12 13 12 12 15 16 16 17 18 18 17 16 17 16 16 17 17 17 17 17 17 18 19 18 18 18 16 12 9 8 8 9 11 10 10 11 10 13 15 13 13 14 14 15 13 10 7 3 2 7 11 12 13 14 15 15 19 21 23 23 23 24
13 12 11 10 9 9 9 7 7 7 7 7 6 6 6 7 8 8 8 8 9 10 11 12 13 11 13 18 19 19 19 20 19 17 16 17 16 17 18 19 19 18 17 17 18 19 19 17 16 14 10 8 8 9 9 10 11 11 12 10 12 14 11 12 13 13 15 14 12 8 3 0 4 9 10 11 14 15 16 17 20 22 23 24 25
12 12 11 11 10 10 8 6 6 6 7 7 5 4 5 7 8 9 9 9 9 10 11 12 13 13 15 18 19 19 20 20 20 19 18 17 17 17 18 19 19 18 16 17 18 19 18 15 13 10 8 7 8 9 8 9 12 12 12 12 11 11 8 10 13 13 15 15 13 9 4 1 3 7 9 11 13 15 16 17 18 20 22 24 25
11 11 11 11 10 10 8 6 6 7 8 7 6 5 6 8 9 9 10 11 11 12 12 13 15 17 19 20 20 21 21 21 21 20 18 17 17 16 17 18 18 16 14 15 16 17 16 12 9 7 5 6 8 8 7 11 13 11 13 13 12 11 6 9 13 14 14 14 12 11 8 4 2 5 8 10 12 13 15 16 17 19 21 23 24
12 12 11 10 11 11 9 7 7 9 10 8 7 7 7 8 10 11 12 13 13 14 16 18 20 21 21 22 23 23 22 22 22 22 20 17 17 16 16 17 16 14 13 14 15 14 12 8 5 3 3 6 8 8 7 10 11 10 12 12 13 12 7 10 16 14 12 14 12 11 12 9 5 4 7 10 11 12 14 15 16 18 19 21 23
13 12 9 8 9 9 7 7 9 11 10 8 9 9 9 10 10 12 13 13 15 16 17 19 21 22 22 22 23 23 23 23 22 21 21 18 16 16 15 15 13 12 12 13 14 11 8 5 0 1 3 6 8 7 7 9 9 8 10 12 12 10 9 12 15 12 12 15 14 12 13 13 9 6 5 9 11 12 13 14 16 17 19 20 21
7 4 5 6 7 8 8 10 10 11 9 9 10 10 11 12 11 11 12 14 16 15 15 15 16 17 16 16 18 20 21 21 19 19 20 18 15 14 13 12 11 11 12 14 13 8 4 1 1 2 4 7 8 8 11 12 9 8 8 12 12 8 11 14 11 11 13 15 14 12 13 14 11 10 7 6 8 10 12 12 14 16 19 20 20
3 1 3 6 6 8 9 10 10 10 10 10 10 10 11 12 10 10 12 14 14 14 14 14 15 15 15 15 16 18 19 18 16 17 18 17 14 12 10 10 11 13 14 12 7 3 0 1 4 5 5 7 8 10 13 13 9 9 9 11 12 9 13 15 10 10 12 12 14 12 11 13 12 11 9 6 5 6 8 10 12 14 17 19 20
3 3 4 5 5 7 7 8 8 8 9 9 8 8 8 8 8 7 10 11 11 11 12 11 12 12 13 14 14 16 16 14 13 13 14 14 13 10 8 8 10 11 9 4 1 2 3 4 7 9 8 8 10 11 12 12 10 11 11 10 13 10 8 10 10 10 10 11 13 12 10 11 11 11 9 7 6 4 4 6 9 12 15 18 19
4 4 4 4 4 4 4 4 5 5 6 5 5 4 4 5 6 5 6 7 8 10 10 8 8 9 10 9 9 9 8 8 8 7 7 7 6 5 5 5 6 4 1 4 4 4 6 8 10 10 9 9 11 10 10 11 11 12 12 11 13 10 7 9 10 9 9 10 11 11 10 11 13 13 11 8 6 4 4 4 5 8 11 15 16
3 4 5 4 4 3 4 4 4 3 2 2 2 3 4 4 4 4 5 6 6 7 7 7 8 9 10 10 9 7 5 3 3 3 4 4 4 2 1 0 2 3 6 8 8 8 10 10 10 9 8 7 8 8 9 10 11 12 12 13 13 11 11 11 11 9 9 9 10 11 11 12 15 15 13 10 7 6 6 5 4 5 6 8 11
4 5 6 5 5 5 4 3 2 2 1 1 2 4 3 3 3 3 4 5 5 6 6 7 8 9 11 12 12 10 7 4 4 5 5 6 6 5 5 7 9 9 10 10 12 12 11 7 5 5 6 7 7 8 9 10 12 12 11 12 12 13 15 12 10 11 10 8 9 10 11 12 14 14 13 11 8 8 7 5 5 6 5 5 6
6 6 5 6 6 5 4 3 2 2 2 2 2 3 4 5 6 6 6 7 8 9 10 10 10 12 13 13 14 14 12 10 10 9 9 9 9 9 11 11 11 11 12 12 11 8 6 3 5 7 6 7 8 8 9 10 11 11 11 11 11 13 15 12 10 11 9 9 9 8 10 12 13 13 12 12 10 7 5 5 6 5 5 5 5
Wind_Direction
136 139 137 136 136 133 129 128 130 128 128 128 126 123 121 121 117 113 109 107 107 110 112 112 113 112 110 109 104 98 92 87 80 74 66 55 47 41 36 30 27 26 24 22 16 10 4 358 354 351 345 338 338 337 338 335 335 338 335 339 342 328 318 324 308 323 314 7 19 332 82 58 29 340 321 331 185 149 103 106 131 123 134 153 152
141 141 138 138 136 136 132 133 135 132 132 131 127 125 124 123 117 113 110 108 107 108 109 111 112 112 113 109 103 97 92 84 76 67 55 40 30 27 24 24 22 20 17 12 7 3 358 355 349 343 338 331 327 325 324 322 322 326 326 325 323 316 315 313 283 285 289 344 58 102 86 52 25 1 339 340 334 320 77 61 126 89 132 157 152
141 140 139 139 138 137 133 135 137 136 136 134 131 129 129 128 121 116 114 112 112 111 111 112 113 114 114 110 104 98 93 86 73 59 45 29 23 23 22 21 16 11 6 1 357 356 354 352 346 340 336 329 324 320 316 312 308 310 314 314 306 299 307 307 281 285 288 291 136 130 79 20 360 1 349 337 327 313 337 265 351 55 125 156 141
141 140 140 141 141 138 135 137 138 140 140 139 138 137 135 133 128 124 122 119 117 116 114 117 119 120 118 113 109 103 95 82 63 50 38 25 18 15 13 9 5 1 356 352 348 346 342 338 338 334 331 327 323 321 316 309 301 295 299 305 301 292 289 283 275 283 292 295 232 193 216 312 329 344 348 337 320 304 278 206 184 301 198 158 137
137 137 141 142 144 142 139 140 139 143 143 143 143 142 140 135 132 130 131 126 122 120 121 125 128 130 127 123 117 109 88 63 49 41 30 15 6 2 2 359 356 354 348 344 340 338 333 329 332 328 324 320 316 315 310 304 297 291 286 287 292 289 272 257 252 250 237 231 236 227 232 249 279 312 332 331 315 301 272 212 182 236 189 156 146
132 134 139 143 149 148 145 143 141 144 146 148 147 146 144 139 134 134 138 132 129 129 133 134 133 134 132 129 118 97 65 47 37 29 17 3 356 356 356 352 350 350 342 336 336 334 328 326 332 327 320 315 311 308 305 302 294 288 282 274 270 270 262 256 248 246 239 227 235 226 226 244 254 277 303 317 307 297 270 225 198 222 178 158 153
133 135 138 142 149 150 151 149 145 146 148 151 150 150 148 144 142 142 143 139 138 142 143 137 132 133 132 125 102 75 52 35 25 15 2 352 349 350 348 347 347 345 333 329 332 330 326 326 332 328 321 317 314 312 310 305 293 285 279 272 264 258 256 255 248 245 248 239 241 235 231 245 244 253 273 293 296 286 256 219 201 205 172 164 159
132 136 139 142 145 149 152 153 153 153 153 154 153 153 150 148 148 146 145 145 149 151 148 138 133 133 134 118 84 62 41 19 8 359 349 342 340 339 338 342 343 333 324 328 333 332 331 331 336 330 324 322 321 320 315 306 293 283 276 272 267 261 254 250 248 245 248 242 242 244 241 251 248 243 252 262 276 271 241 213 199 197 179 174 166
133 139 141 141 143 145 149 152 156 157 158 158 155 155 152 152 151 148 146 149 154 152 147 140 139 142 145 115 75 45 11 356 350 345 340 335 332 328 330 335 332 326 327 332 334 335 336 338 342 335 327 326 327 324 318 311 302 288 277 272 268 264 257 250 248 244 245 245 241 244 245 254 255 235 230 236 248 258 238 217 197 184 192 183 170
135 143 143 140 143 143 147 150 153 153 153 153 151 151 152 155 154 152 153 155 155 152 149 147 153 161 161 108 34 345 338 340 341 338 332 323 323 321 323 326 325 330 334 334 333 334 336 340 342 336 331 329 330 329 325 320 310 297 286 276 267 262 257 253 251 246 244 246 240 241 247 252 252 226 218 227 228 231 234 226 200 170 181 185 172
137 146 141 140 143 143 147 148 150 149 146 145 145 146 147 152 154 157 160 160 159 159 158 161 173 185 195 252 301 313 326 332 333 327 319 315 319 319 318 320 327 337 336 332 328 333 338 339 339 335 334 331 330 330 328 322 314 303 296 288 275 264 258 254 251 248 244 245 242 236 242 249 253 236 224 228 219 212 226 230 203 167 173 183 178
140 144 138 140 140 142 146 146 148 147 145 144 145 147 147 150 153 156 160 165 169 172 173 180 194 208 238 263 283 298 312 319 317 308 305 309 317 318 320 325 331 333 329 329 330 337 339 337 337 334 333 331 328 326 324 319 314 308 304 300 288 274 262 257 252 250 246 246 244 234 232 245 250 239 225 222 215 212 220 226 214 186 180 180 177
140 142 137 139 138 140 145 146 148 147 148 148 150 150 149 152 153 155 159 170 177 186 192 201 216 229 248 262 274 283 296 296 294 296 301 308 315 322 326 328 327 322 322 335 338 340 339 336 335 333 332 331 329 325 321 317 312 307 305 301 294 286 271 261 256 253 250 247 246 236 227 235 239 227 216 211 208 218 222 221 221 213 194 175 164
143 143 139 138 136 139 143 146 149 150 153 152 155 155 155 158 159 164 169 179 188 198 207 215 226 239 252 262 275 277 277 277 282 296 308 313 319 325 329 326 321 318 326 342 341 342 342 338 335 334 334 333 332 328 322 317 311 305 301 295 291 290 279 266 262 259 255 250 246 240 228 228 229 222 219 210 199 215 224 217 217 219 207 184 164
144 142 141 138 135 138 142 146 150 153 156 156 159 160 162 164 167 172 176 182 191 201 208 220 236 247 258 264 266 267 270 277 295 310 316 320 326 324 320 317 315 319 336 348 344 347 346 341 337 335 335 333 332 329 323 318 312 307 300 292 287 288 283 274 270 264 259 254 246 241 233 226 222 222 225 216 200 208 220 215 212 212 205 196 178
140 142 141 139 137 137 141 144 150 153 154 155 157 159 162 165 167 170 173 180 186 197 204 218 246 249 249 257 257 268 287 308 323 325 327 329 327 319 310 311 318 332 347 353 348 350 348 342 338 336 335 334 332 328 324 319 316 311 302 293 288 285 278 272 271 265 260 256 246 240 234 228 222 218 221 214 200 202 215 213 210 207 200 194 188
139 141 139 141 139 136 141 142 146 151 151 153 154 156 160 162 165 168 171 181 191 201 211 222 240 248 246 255 270 303 332 341 339 335 337 335 324 313 315 329 338 344 354 354 349 350 347 343 340 339 337 334 331 326 322 319 315 310 302 292 285 281 273 266 266 263 258 254 247 240 234 229 224 216 216 213 199 199 211 210 208 206 198 189 185
139 142 142 142 138 137 143 143 146 149 150 153 157 158 160 164 168 175 181 189 201 206 217 228 234 248 254 269 312 339 349 352 351 345 338 328 328 332 336 342 345 351 359 356 349 348 345 343 340 339 336 330 327 323 319 316 314 309 301 290 280 278 274 265 263 263 259 254 245 238 233 227 221 216 215 210 199 198 206 207 206 202 198 191 182
139 144 146 143 140 142 144 144 145 147 152 155 159 159 159 167 171 177 187 191 197 204 216 228 237 257 275 302 332 330 337 9 8 1 345 331 340 355 349 342 348 355 358 354 348 346 344 340 339 339 334 327 324 323 321 318 318 315 304 290 278 274 272 265 261 263 259 253 244 236 232 224 216 213 212 207 199 197 201 204 202 199 199 194 182
140 144 148 152 150 152 151 150 148 148 156 158 160 162 160 167 174 179 184 191 194 205 218 228 244 268 286 299 332 310 279 89 327 324 2 344 336 346 355 348 350 352 351 351 345 342 341 341 344 345 338 331 331 331 328 324 323 320 311 297 281 273 271 266 258 259 256 250 243 236 231 222 212 207 207 202 198 198 198 201 200 196 198 195 185
144 149 154 158 155 157 158 156 154 154 160 165 171 171 172 177 183 190 191 195 203 215 229 232 237 251 253 265 263 265 279 270 276 268 281 292 297 330 351 350 345 343 343 346 344 341 343 346 352 351 344 337 336 335 331 330 325 321 319 306 293 285 275 266 256 256 253 245 239 234 229 218 207 202 203 199 197 200 198 200 199 195 196 194 188
151 154 156 156 153 158 161 158 161 166 166 169 178 177 184 192 188 194 203 210 218 224 227 224 227 241 243 254 257 245 260 270 278 275 277 277 270 325 349 346 337 333 336 340 340 342 344 346 347 347 346 341 337 334 332 334 329 325 323 311 305 304 286 268 255 253 248 240 234 232 228 217 208 203 202 198 197 202 200 200 199 194 194 193 190
159 160 160 161 160 162 163 160 169 182 177 166 173 182 189 193 193 197 208 215 224 229 214 214 225 236 246 248 251 254 256 259 305 305 294 303 300 313 334 334 327 328 335 338 338 341 345 344 339 341 345 342 339 335 333 335 334 332 330 315 308 311 299 276 255 244 241 240 233 228 228 220 212 206 204 199 197 203 202 202 200 193 195 195 191
167 166 166 168 167 166 166 166 175 185 183 177 173 183 190 185 196 202 218 225 224 235 221 219 231 231 237 237 239 247 264 275 302 301 287 288 295 298 306 320 322 328 336 337 339 343 343 342 338 341 344 342 341 338 336 338 337 338 341 328 314 312 306 288 260 240 238 244 239 227 228 224 214 207 204 201 199 203 204 203 202 196 194 195 193
170 169 170 173 173 170 168 171 180 183 182 183 177 198 205 181 198 206 220 235 233 241 239 230 232 232 231 230 228 233 261 281 278 283 291 287 292 295 297 318 320 324 336 335 342 344 339 339 341 342 343 342 342 341 338 341 341 342 347 345 330 318 309 296 273 253 246 250 249 234 226 223 217 209 204 203 201 203 205 203 203 200 194 193 193
169 169 171 174 174 175 174 174 180 185 186 177 175 206 210 178 211 240 232 242 247 235 245 251 244 242 240 232 213 228 254 252 255 262 279 295 298 303 310 321 318 324 338 335 343 344 337 340 341 340 341 340 341 339 336 340 345 344 344 347 339 324 311 301 285 267 253 252 254 240 229 224 220 213 205 202 201 202 204 203 203 203 196 194 194
166 169 171 175 177 179 179 179 179 184 193 180 180 202 202 180 193 227 229 234 257 243 244 257 258 263 259 243 226 257 260 239 251 247 247 294 307 314 324 325 325 330 338 334 340 343 338 339 335 332 336 337 336 335 332 334 342 343 340 342 342 333 321 307 292 280 264 255 251 239 231 230 225 215 206 202 201 202 203 202 202 205 200 195 195
166 177 176 179 182 182 179 180 184 185 191 191 193 198 199 191 188 209 217 212 223 229 243 253 256 269 272 258 236 251 256 245 262 258 241 293 315 312 316 321 324 328 335 337 341 339 334 332 326 326 333 337 335 333 334 334 339 348 342 340 348 343 327 312 297 286 273 260 251 243 234 233 227 215 207 203 202 201 203 203 201 205 203 196 195
172 185 179 181 182 183 182 183 188 186 189 195 203 205 202 203 201 216 224 218 216 210 221 244 252 261 269 267 245 232 240 251 264 265 246 272 294 286 292 298 309 320 324 331 335 325 324 325 324 329 335 338 337 335 342 342 340 340 330 334 347 343 327 316 306 288 277 266 255 246 235 233 227 216 209 206 204 202 203 205 202 204 205 198 196
176 183 180 183 179 181 185 185 189 186 189 195 202 214 216 211 212 218 225 235 235 218 207 218 237 243 250 262 263 242 227 246 261 268 266 269 279 280 290 293 299 309 307 315 317 313 323 327 326 331 337 342 343 341 347 338 330 323 312 325 339 336 327 316 309 291 277 265 255 245 236 236 230 219 213 208 205 203 203 205 204 204 205 202 198
171 179 181 183 177 181 186 183 191 194 191 198 202 209 222 225 220 219 220 235 245 230 214 211 223 234 244 254 263 262 243 241 260 272 276 280 283 282 294 298 298 304 302 306 313 324 332 325 324 334 339 345 346 346 347 333 327 324 317 328 328 323 325 317 311 299 283 268 255 245 236 239 234 223 218 211 207 207 205 204 206 205 205 206 203
170 178 174 179 175 181 188 181 192 206 195 196 207 207 224 233 223 221 220 231 245 235 223 227 228 227 236 247 257 267 259 242 255 268 269 271 275 281 297 304 303 295 282 291 311 334 328 318 330 339 336 339 336 338 345 330 330 333 327 332 322 313 325 321 317 306 291 275 259 250 237 237 238 228 219 214 211 212 209 205 205 206 206 209 208
180 171 158 177 180 179 186 178 187 215 208 193 206 209 219 234 227 227 223 226 244 244 232 234 243 241 239 247 257 265 261 242 244 262 267 265 270 287 302 301 296 280 276 296 315 322 315 321 338 333 330 333 323 328 338 327 336 340 331 331 322 319 329 329 328 318 300 284 268 257 246 237 235 229 220 215 214 214 212 209 207 207 208 211 210
188 179 158 180 179 172 180 178 181 212 222 200 199 211 210 224 230 235 239 233 238 247 247 236 239 247 244 250 258 266 272 262 248 246 254 259 270 292 300 292 288 279 283 304 314 313 317 329 333 324 328 332 322 328 335 341 350 341 329 329 328 329 330 332 336 328 311 297 284 268 253 240 232 228 223 217 216 215 212 212 210 209 211 211 211
190 191 175 184 167 169 181 189 188 192 222 210 198 213 210 217 224 227 243 247 238 238 251 252 244 247 249 257 263 271 281 279 265 254 253 259 276 295 292 282 284 285 291 303 311 318 323 329 334 328 328 328 327 332 338 2 351 328 326 328 328 330 331 338 340 334 326 310 298 278 254 240 232 227 224 218 215 215 213 213 213 212 213 212 212
185 193 186 187 168 183 190 196 198 185 203 218 208 213 211 221 226 223 234 242 244 237 241 249 250 254 253 255 261 265 270 273 273 272 268 267 275 289 281 274 280 288 294 302 313 324 322 323 333 329 324 320 321 330 337 356 341 326 333 328 325 331 335 348 351 344 340 323 308 293 255 237 229 222 224 221 215 215 213 213 214 213 214 215 214
184 187 193 191 178 199 201 193 204 189 193 216 226 222 213 219 223 226 229 232 245 247 247 254 257 258 254 261 271 269 263 262 268 276 278 274 270 271 273 274 278 286 293 300 312 322 319 320 328 326 325 317 309 323 324 335 342 336 335 322 323 334 338 349 358 354 350 338 320 310 259 229 221 221 225 222 217 214 214 214 216 216 216 217 216
197 192 197 199 190 199 201 194 207 206 197 206 232 244 234 227 224 227 228 230 240 243 246 249 249 253 258 266 274 273 266 262 263 267 270 270 267 267 277 284 285 288 292 294 303 313 314 318 323 324 325 315 310 326 317 329 353 351 342 330 321 331 340 346 356 358 358 357 341 331 287 220 210 216 221 219 214 211 213 213 215 217 217 217 216
211 205 203 206 204 206 208 202 207 215 211 212 223 236 246 251 248 241 236 238 244 250 252 250 251 254 253 253 253 256 263 265 266 265 264 265 266 269 277 284 289 292 289 290 299 308 312 315 319 321 322 317 319 328 319 329 354 359 354 343 319 327 346 354 2 1 359 8 1 346 339 224 201 207 214 216 211 208 213 212 211 215 215 216 216
218 217 213 213 214 219 217 202 202 206 209 224 226 221 234 249 258 262 263 257 256 265 269 272 278 272 256 254 255 259 264 266 268 270 270 268 267 269 274 280 287 290 288 292 299 305 309 311 314 318 320 322 327 329 325 331 352 2 359 348 321 323 343 360 9 4 359 14 16 359 354 355 197 205 213 216 211 209 213 210 211 214 214 215 217
219 218 218 217 216 226 224 210 218 219 216 225 229 240 261 267 268 276 285 284 285 292 290 284 280 271 263 263 263 263 262 261 264 271 274 269 264 265 273 279 283 287 290 295 301 306 306 306 308 313 319 325 332 334 338 349 358 4 1 358 340 323 339 5 10 7 3 13 24 21 14 325 221 211 214 214 211 214 216 212 213 216 216 217 220
222 222 222 215 217 236 241 231 235 244 248 245 246 265 283 288 290 292 291 287 289 293 291 281 269 267 271 271 268 265 260 255 258 267 269 262 261 264 270 274 279 286 292 295 305 311 307 302 302 309 318 324 333 337 355 7 5 3 355 357 355 333 345 20 6 4 6 6 21 33 31 17 269 230 220 215 214 219 220 216 217 218 218 220 222
225 222 219 216 226 242 249 244 243 253 260 263 272 281 284 290 295 294 289 285 284 284 282 278 272 272 274 271 267 265 259 255 258 266 268 260 257 259 263 268 275 283 288 296 311 316 306 296 297 315 319 325 339 346 0 357 348 356 356 354 358 352 7 21 358 357 6 1 6 18 20 20 1 282 239 228 222 220 218 217 220 221 221 224 225
231 224 218 229 237 239 240 239 242 250 257 264 275 282 286 285 285 290 292 288 286 282 275 272 272 272 271 268 265 262 261 262 265 270 271 262 251 250 257 265 271 276 285 302 314 315 302 290 302 20 315 329 346 358 11 357 331 340 357 354 359 6 11 9 356 354 1 359 2 5 4 10 12 349 283 245 234 224 218 217 220 225 226 228 229
231 234 238 244 242 239 236 235 239 248 254 260 268 276 284 284 284 291 293 286 283 278 268 269 277 277 275 274 269 265 265 269 274 275 271 260 246 246 254 262 266 270 284 302 312 311 295 274 72 330 316 340 355 11 22 16 355 341 355 1 3 359 345 348 356 357 352 352 356 356 357 3 5 356 335 280 254 241 233 227 222 227 232 233 235
222 92 235 233 236 237 234 237 241 247 253 257 265 274 282 288 296 297 287 280 275 272 270 276 284 284 284 284 279 276 275 277 280 279 274 262 247 244 245 256 268 276 287 298 306 306 149 74 31 6 1 5 5 21 19 9 5 357 355 1 356 338 327 328 336 349 347 349 351 347 351 359 356 353 353 336 302 263 243 238 235 235 237 237 238
217 169 198 212 223 228 228 236 237 238 246 251 261 273 280 291 304 297 278 274 275 281 287 291 292 294 295 292 289 285 283 281 281 283 282 268 250 240 239 261 278 284 291 297 120 98 77 60 46 35 38 27 10 18 9 351 354 357 354 355 345 335 328 325 320 328 339 346 349 343 346 357 349 346 352 345 335 320 277 257 250 245 243 242 241
198 156 141 156 183 203 208 214 216 224 237 242 260 283 296 309 315 304 286 286 296 307 314 320 324 330 328 322 315 305 295 286 290 309 313 284 245 229 236 266 282 286 4 100 102 80 57 47 44 35 31 25 9 4 355 348 350 347 350 352 345 351 7 351 333 322 326 339 347 340 340 351 344 341 346 337 327 326 322 307 281 260 248 245 245
176 127 113 129 142 130 131 148 168 189 215 238 311 341 338 334 334 326 319 320 329 338 345 356 3 7 6 7 1 350 339 307 312 6 24 64 103 119 161 188 56 87 96 90 75 62 53 40 33 21 10 17 10 353 351 356 354 349 349 347 347 356 360 354 344 334 331 337 344 337 333 339 334 332 334 328 322 319 327 332 307 280 264 254 249
144 124 120 136 133 118 117 124 145 147 107 343 352 2 1 11 26 5 344 357 23 35 38 41 40 34 30 29 26 24 30 53 81 84 78 84 91 91 100 95 87 93 93 71 50 48 52 43 26 5 0 20 11 354 5 6 356 354 350 345 347 342 341 348 346 339 341 341 339 332 327 325 323 326 323 315 311 308 314 335 320 292 285 284 259
131 120 121 139 133 120 118 111 93 74 54 21 20 41 66 72 61 48 44 50 59 64 61 62 59 50 45 45 42 44 60 78 86 94 92 86 87 92 99 99 92 92 81 54 39 49 57 38 28 17 13 18 351 343 16 12 354 356 350 345 346 335 338 352 344 339 346 339 331 325 321 316 317 327 325 311 302 298 302 325 330 311 294 300 280